Hourly Data Report for September 29, 2021

TORONTO CITY
ONTARIO
Current Station Operator: ECCC - MSC

43°40'00.000" N
79°24'00.000" W
112.50 m
6158355
71508
XTO

Download Data

Hourly Data (September 2021)
Hourly Data Report for September 29, 2021
TIME
LST
Temp Definition
°C
Dew Point Definition
°C
Rel Hum Definition
%
Precip. Amount Definition
mm

Wind Dir Definition
10's deg

Wind Spd Definition
km/h
Visibility Definition
km
Stn Press Definition
kPa
Hmdx Definition


Wind Chill Definition


Weather Definition


00:00 11.0 6.8 75 0.0       100.35     LegendNANA
01:00 11.5 6.7 72 0.0       100.34     LegendNANA
02:00 11.5 6.3 71 0.0       100.34     LegendNANA
03:00 10.8 6.1 73 0.0       100.35     LegendNANA
04:00 11.7 6.9 73 0.0       100.40     LegendNANA
05:00 11.5 7.5 76 0.0       100.44     LegendNANA
06:00 10.8 7.6 81 0.0       100.46     LegendNANA
07:00 11.4 8.7 83 0.0       100.49     LegendNANA
08:00 13.8 9.9 77 0.0       100.52     LegendNANA
09:00 15.9 10.4 70 0.0       100.53     LegendNANA
10:00 17.6 10.3 62 0.0       100.51     LegendNANA
11:00 18.5 9.5 56 0.0       100.51     LegendNANA
12:00 19.6 9.7 53 0.0       100.49     LegendNANA
13:00 20.1 6.7 42 0.0       100.44     LegendNANA
14:00 20.3 6.7 41 0.0       100.40     LegendNANA
15:00 20.1 4.7 36 0.0       100.39     LegendNANA
16:00 19.5 5.8 41 0.0       100.40     LegendNANA
17:00 18.5 3.8 38 0.0       100.44     LegendNANA
18:00 16.8 5.1 46 0.0       100.51     LegendNANA
19:00 15.5 3.2 44 0.0       100.55     LegendNANA
20:00 14.7 6.4 58 0.0       100.59     LegendNANA
21:00 14.2 7.5 64 0.0       100.63     LegendNANA
22:00 13.4 7.6 68 0.0       100.68     LegendNANA
23:00 13.0 7.5 69 0.0       100.73     LegendNANA

Notes on Data Quality.

Legend

  • E = Estimated
  • M = Missing
  • NA = Not Available*
  • [empty] = Indicates an unobserved value
Date modified: